Overview Statistics Trail Chart Weather Telemetry Raw packets
 

This is the latest recevied weather packets stored in our database for station/object SV9TNF-57. If no packets are shown the sender has not sent any weather packets the latest 10 day(s).

<< 13 14 15 16 17 18 19 >>
Time Temp. Humidity Pressure Rain* Wind** Luminosity Snow
1788568649 24.44° C 62% 995.7 hPa 0 mm 0 m/s - -
1788568349 24.44° C 62% 995.8 hPa 0 mm 3.13 m/s, 274° - -
1788568048 24.44° C 62% 995.7 hPa 0 mm 0 m/s - -
1788567748 24.44° C 63% 996.1 hPa 0 mm 0 m/s - -
1788567448 24.44° C 63% 995.7 hPa 0 mm 2.24 m/s, 273° - -
1788567148 24.44° C 63% 995.8 hPa 0 mm 0.45 m/s, 284° - -
1788566848 25° C 62% 995.9 hPa 0 mm 0.45 m/s, 291° - -
1788566548 25° C 61% 995.8 hPa 0 mm 0.89 m/s, 263° - -
1788566248 25° C 60% 995.9 hPa 0 mm 0.45 m/s, 279° - -
1788565947 25.56° C 59% 996 hPa 0 mm 1.34 m/s, 273° - -
1788565674 25.56° C 60% 996.1 hPa 0 mm 0 m/s - -
1788565348 25.56° C 59% 995.9 hPa 0 mm 0.45 m/s, 270° - -
1788565047 25° C 60% 996.1 hPa 0 mm 1.34 m/s, 268° - -
1788564747 25.56° C 59% 996.3 hPa 0 mm 2.68 m/s, 279° - -
1788564447 25.56° C 59% 996 hPa 0 mm 0 m/s - -
1788564147 25.56° C 60% 996.1 hPa 0 mm 0 m/s - -
1788563847 25.56° C 59% 996.2 hPa 0 mm 1.79 m/s, 280° - -
1788563547 25.56° C 58% 996.4 hPa 0 mm 0 m/s - -
1788563247 25.56° C 58% 996.2 hPa 0 mm 0 m/s - -
1788562946 25° C 59% 996.3 hPa 0 mm 0 m/s - -
1788562646 25° C 59% 996.4 hPa 0 mm 0.45 m/s, 270° - -
1788562346 25° C 59% 996.4 hPa 0 mm 0 m/s - -
1788562046 25° C 59% 996.3 hPa 0 mm 2.24 m/s, 271° - -
1788561746 25° C 58% 996.3 hPa 0 mm 0 m/s - -
1788561446 25° C 58% 996.6 hPa 0 mm 1.79 m/s, 286° - -

* Rain latest hour (hover to see other rain measurements)
** Current wind speed in m/s (hover to see current wind gust speed)